[TLELIST] Archives

 

Current TLEs

May 22nd 2008 PDT

HST 1 20580U 90037B 08143.20183599 .00000290 00000-0 95670-5 0 1419 2 20580 028.4677 132.7117 0003800 111.3473 248.7523 15.00379192791076 ISS (ZARYA) 1 25544U 98067A 08143.32928241 .00008455 00000-0 56307-4 0 5260 2 25544 051.6376 149.6881 0005602 240.3546 318.8778 15.76401038544442 CXO 1 25867U 99040B 08141.12500000 +.00000373 +00000-0 +10000-3 0 01991 2 25867 063.6406 081.2230 6785227 279.1966 357.7918 00.37805426003523 ____________________________________________________________________ These 2-Line ...Continue Reading

Current TLEs

May 21st 2008 PDT

HST 1 20580U 90037B 08141.40582250 .00000295 00000-0 99622-5 0 1401 2 20580 028.4679 144.4244 0003787 091.7769 268.3254 15.00378764790805 ISS (ZARYA) 1 25544U 98067A 08141.83745370 .00006729 00000-0 45721-4 0 5163 2 25544 051.6385 157.3764 0005587 232.5089 134.8673 15.76367601544217 CXO 1 25867U 99040B 08141.12500000 +.00000373 +00000-0 +10000-3 0 01991 2 25867 063.6406 081.2230 6785227 279.1966 357.7918 00.37805426003523 ____________________________________________________________________ These 2-Line ...Continue Reading

Current TLEs

May 20th 2008 PDT

HST 1 20580U 90037B 08139.47676922 +.00000270 +00000-0 +80389-5 0 01521 2 20580 028.4682 157.0051 0003689 070.8138 289.2849 15.00378134790515 ISS (ZARYA) 1 25544U 98067A 08141.35105940 .00006502 00000-0 44332-4 0 5136 2 25544 051.6380 159.8829 0005597 230.9648 254.2995 15.76359442544134 CXO 1 25867U 99040B 08141.12500000 +.00000373 +00000-0 +10000-3 0 01991 2 25867 063.6406 081.2230 6785227 279.1966 357.7918 00.37805426003523 ____________________________________________________________________ These 2-Line ...Continue Reading

Current TLEs

May 19th 2008 PDT

HST 1 20580U 90037B 08140.20847948 .00000272 00000-0 81713-5 0 1391 2 20580 028.4681 152.2339 0003717 078.6470 281.4534 15.00378300790629 ISS (ZARYA) 1 25544U 98067A 08140.13735756 .00006439 00000-0 43975-4 0 5046 2 25544 051.6394 166.1373 0005688 225.6186 207.3985 15.76341882543948 CXO 1 25867U 99040B 08138.50000000 +.00000374 +00000-0 +10000-3 0 01984 2 25867 063.6288 081.2673 6778754 279.2457 000.3991 00.37805289003513 ____________________________________________________________________ These 2-Line ...Continue Reading

Current TLEs

May 18th 2008 PDT

HST 1 20580U 90037B 08137.41467609 +.00000255 +00000-0 +68420-5 0 01416 2 20580 028.4684 170.4532 0003659 047.7326 312.3574 15.00377619790205 ISS (ZARYA) 1 25544U 98067A 08138.85293981 .00007470 00000-0 50384-4 0 4969 2 25544 051.6402 172.7560 0005720 220.4168 118.8720 15.76327413543733 CXO 1 25867U 99040B 08138.50000000 +.00000374 +00000-0 +10000-3 0 01984 2 25867 063.6288 081.2673 6778754 279.2457 000.3991 00.37805289003513 ____________________________________________________________________ These 2-Line ...Continue Reading

Current TLEs

May 17th 2008 PDT

HST 1 20580U 90037B 08137.21511842 .00000270 00000-0 80121-5 0 1377 2 20580 028.4686 171.7549 0003661 045.4683 314.6204 15.00377714790170 ISS (ZARYA) 1 25544U 98067A 08138.16480478 .00008093 00000-0 54261-4 0 4917 2 25544 051.6401 176.3006 0005689 217.5380 174.1237 15.76319287543631 CXO 1 25867U 99040B 08135.83333333 +.00000404 +00000-0 +10000-3 0 01978 2 25867 063.6147 081.3128 6773991 279.3003 357.3166 00.37805960003503 ____________________________________________________________________ These 2-Line ...Continue Reading

Current TLEs

May 16th 2008 PDT

HST 1 20580U 90037B 08137.21511842 .00000270 00000-0 80121-5 0 1377 2 20580 028.4686 171.7549 0003661 045.4683 314.6204 15.00377714790170 ISS (ZARYA) 1 25544U 98067A 08136.53613860 .00008666 00000-0 57874-4 0 4828 2 25544 051.6418 184.6908 0006031 208.8986 294.3349 15.76292617543376 CXO 1 25867U 99040B 08135.83333333 +.00000404 +00000-0 +10000-3 0 01978 2 25867 063.6147 081.3128 6773991 279.3003 357.3166 00.37805960003503 ____________________________________________________________________ These 2-Line ...Continue Reading

Current TLEs

May 15th 2008 PDT

HST 1 20580U 90037B 08135.55213865 .00000301 00000-0 10436-4 0 1361 2 20580 028.4685 182.5992 0003686 027.3104 332.7678 15.00377518789924 ISS (ZARYA) 1 25544U 98067A 08135.52130163 .00009218 00000-0 61342-4 0 4768 2 25544 051.6397 189.9219 0006022 205.7616 294.7702 15.76275638543215 CXO 1 25867U 99040B 08127.91666667 .00000423 00000-0 10000-3 0 1945 2 25867 063.5912 081.5293 6757655 279.4669 359.3736 00.37798619 3478 ____________________________________________________________________ These 2-Line ...Continue Reading

Current TLEs

May 14th 2008 PDT

HST 1 20580U 90037B 08134.48783109 .00000320 00000-0 11889-4 0 1358 2 20580 028.4687 189.5397 0003667 015.4242 344.6459 15.00377360789768 ISS (ZARYA) 1 25544U 98067A 08135.18870377 .00009326 00000-0 62027-4 0 4725 2 25544 051.6404 191.6349 0006036 203.9722 207.9363 15.76270024543168 CXO 1 25867U 99040B 08127.91666667 .00000423 00000-0 10000-3 0 1945 2 25867 063.5912 081.5293 6757655 279.4669 359.3736 00.37798619 3478 ____________________________________________________________________ These 2-Line ...Continue Reading

Current TLEs

May 13th 2008 PDT

HST 1 20580U 90037B 08133.22396530 .00000355 00000-0 14608-4 0 1346 2 20580 028.4691 197.7826 0003631 000.3531 359.7058 15.00377223789575 ISS (ZARYA) 1 25544U 98067A 08134.11661854 .00009851 00000-0 65334-4 0 4643 2 25544 051.6405 197.1584 0006193 200.1000 244.1211 15.76250765542998 CXO 1 25867U 99040B 08127.91666667 .00000423 00000-0 10000-3 0 1945 2 25867 063.5912 081.5293 6757655 279.4669 359.3736 00.37798619 3478 ____________________________________________________________________ These 2-Line ...Continue Reading
  • This mailing list is a public mailing list - anyone may join or leave, at any time.
  • This mailing list is announce-only.

International Space Station (ISS) / Hubble Space Telescope (HST) / Chandra X-Ray Observatory Orbital Data via EMAIL

Privacy Policy:

Private list